Weather observations for the past three days for
Brunswick County Airport
Metric (Imperial)
Date Time (edt) Wind (kph) Vis. (km) Weather Sky Cond. Temperature (ºC) Relative Humidity Wind Chill (°C) Heat Index (°C) Pressure Precipitation (cm)
Air Dwpt 6 hour altimeter (cm) sea level (mb) 1 hr 3 hr 6 hr
Max. Min.
31 13:15 SE 17 16.09 Fair CLR 31 23 62% 35 76.5 0.0
31 12:55 SE 17 16.09 A Few Clouds FEW028 FEW041 FEW049 30 22 62% 33 76.5 0.0
31 12:35 E 9 16.09 Overcast BKN030 BKN041 OVC049 29 22 66% 32 76.5 0.0
31 12:15 SE 9 16.09 Mostly Cloudy BKN032 BKN039 BKN070 30 24 70% 35 76.53 0.0
31 11:55 Vrbl 6 16.09 Mostly Cloudy SCT031 SCT039 BKN048 30 24 70% 35 76.53 0.0
31 11:35 NW 7 16.09 Mostly Cloudy SCT031 BKN039 30 23 66% 34 76.53 0.0
31 11:15 E 7 16.09 Fair CLR 30 23 66% 34 76.5 0.0
31 10:55 Vrbl 6 16.09 Fair CLR 29 24 74% 34 76.48 0.0
31 10:35 Vrbl 6 16.09 Fair CLR 29 24 74% 34 76.48 0.0
31 10:15 NE 11 16.09 Fair CLR 28 24 79% 32 76.5 0.0
31 09:55 N 15 16.09 Fair CLR 27 25 89% 31 76.48 0.0
31 09:35 NE 13 16.09 Fair CLR 26 25 94% 28 76.48 0.0
31 09:15 N 7 16.09 Fair CLR 25 25 100% 25 76.48 0.0
31 08:55 NE 11 16.09 A Few Clouds FEW004 25 24 94% 26 76.48 0.0
31 08:35 NE 9 16.09 Fair CLR 25 24 94% 26 76.48 0.0
31 08:15 NE 7 16.09 Fair CLR 24 24 100% 23 76.48 0.0
31 07:55 N 9 16.09 Fair CLR 24 24 24.4 23.7 100% 23 76.48 0.0
31 07:35 N 11 16.09 Fair CLR 24 24 100% 23 76.45 0.0
31 07:15 N 9 16.09 Fair CLR 24 23 94% 23 76.43 0.0
31 06:55 N 9 16.09 Fair CLR 24 23 94% 23 76.43 0.0
31 06:35 N 9 16.09 Fair CLR 24 24 100% 23 76.43 0.0
31 06:15 N 9 16.09 Fair CLR 24 24 100% 23 76.43 0.0
31 05:55 N 2 16.09 Fair CLR 24 24 100% 23 76.4 0.0
31 05:35 N 4 16.09 Fair CLR 24 24 100% 23 76.38 0.0
31 05:15 Calm 16.09 Fair CLR 24 24 100% 23 76.38 0.0
31 04:55 NE 2 16.09 Fair CLR 24 24 100% 23 76.38 0.0
31 04:35 NE 2 16.09 Fair CLR 24 24 100% 23 76.38 0.0
31 04:15 NE 4 16.09 Fair CLR 24 24 100% 23 76.38 0.0
31 03:55 NE 6 16.09 Fair CLR 24 24 100% 23 76.4 0.0
31 03:35 N 6 16.09 Fair CLR 24 24 100% 23 76.4 0.0
31 03:15 N 7 16.09 Fair CLR 24 24 100% 23 76.4 0.0
31 02:55 N 6 16.09 Fair CLR 24 24 100% 23 76.43 0.0
31 02:35 N 7 16.09 Fair CLR 24 24 100% 23 76.43 0.0
31 01:55 N 6 16.09 Fair CLR 24 24 27.1 24.3 100% 23 76.48 0.0
31 01:15 N 6 16.09 Fair CLR 24 24 100% 23 76.48 0.0
31 00:55 N 6 16.09 Fair CLR 25 24 94% 26 76.48 0.0
31 00:35 N 4 16.09 Fair CLR 25 24 94% 26 76.5 0.0
31 00:15 N 6 16.09 Fair CLR 25 24 94% 26 76.48 0.0
30 23:55 N 7 16.09 Partly Cloudy FEW013 SCT020 25 24 94% 26 76.5 0.0
30 23:35 NE 6 16.09 Partly Cloudy SCT015 SCT020 25 24 94% 26 76.5 0.0
30 23:15 NE 4 16.09 Fair CLR 25 24 94% 26 76.5 0.0
30 22:55 NE 4 16.09 A Few Clouds FEW016 FEW022 26 24 89% 28 76.5 0.0
30 22:35 N 4 16.09 Fair CLR 25 24 94% 26 76.53 0.0
30 22:15 NE 6 16.09 Fair CLR 26 24 89% 28 76.5 0.0
30 21:55 N 2 16.09 Fair CLR 26 24 89% 28 76.5 0.0
30 21:35 N 4 16.09 Fair CLR 26 24 89% 28 76.48 0.0
30 21:15 N 2 16.09 Fair CLR 26 24 89% 28 76.48 0.0
30 20:55 NE 6 16.09 Fair CLR 26 25 94% 28 76.45 0.0
30 20:35 N 6 16.09 Fair CLR 26 24 89% 28 76.45 0.0
30 20:15 E 6 16.09 Fair CLR 27 25 89% 31 76.45 0.0
30 19:55 N 6 16.09 Fair CLR 27 25 29.9 26.7 89% 31 76.45 0.0
30 19:35 NE 6 16.09 Fair CLR 27 24 84% 30 76.45 0.0
30 19:15 NE 7 16.09 Fair CLR 27 24 84% 30 76.45 0.0
30 18:55 NE 7 16.09 Fair CLR 28 24 79% 32 76.45 0.0
30 18:35 E 7 16.09 Fair CLR 28 24 79% 32 76.45 0.0
30 18:15 E 6 16.09 A Few Clouds FEW020 28 23 74% 31 76.48 0.0
30 17:55 E 7 16.09 A Few Clouds FEW020 29 23 70% 33 76.48 0.0
30 17:35 E 6 16.09 A Few Clouds FEW049 29 24 74% 34 76.48 0.0
30 17:15 SE 11 16.09 Partly Cloudy FEW017 FEW024 SCT047 29 24 74% 34 76.48 0.0
30 16:55 E 11 16.09 Mostly Cloudy FEW016 SCT025 BKN045 29 24 74% 34 76.5 0.0
30 16:35 SE 9 12.87 Fair CLR 29 24 74% 34 76.5 0.0
30 16:15 E 9 16.09 A Few Clouds FEW018 29 24 74% 34 76.48 0.0
30 15:55 E 7 16.09 A Few Clouds FEW018 28 24 79% 32 76.5 0.0
30 15:35 E 15 16.09 Mostly Cloudy BKN018 BKN023 29 24 74% 34 76.53 0.0
30 15:15 Vrbl 9 16.09 Thunderstorm in Vicinity BKN016 29 24 74% 34 76.56 0.0
30 14:55 E 13 16.09 A Few Clouds FEW016 29 24 74% 34 76.53 0.0
30 14:35 E 13 16.09 Thunderstorm in Vicinity CLR 29 24 74% 34 76.53 0.0
30 14:15 E 11 16.09 Fair CLR 29 23 70% 33 76.53 0.0
30 13:55 E 11 16.09 Partly Cloudy SCT019 SCT029 SCT038 30 24 30.6 23.8 70% 35 76.56 0.0
30 13:35 E 15 16.09 Mostly Cloudy SCT019 BKN029 BKN038 30 24 70% 35 76.56 0.0
30 13:15 E 17 16.09 Mostly Cloudy SCT023 BKN030 30 24 70% 35 76.58 0.0
30 12:55 Vrbl 7 16.09 Mostly Cloudy BKN023 BKN027 BKN045 30 24 70% 35 76.58 0.0
30 12:35 NE 13 16.09 Mostly Cloudy SCT028 SCT038 BKN046 29 24 74% 34 76.61 0.0
30 12:15 E 7 16.09 Partly Cloudy FEW023 FEW028 SCT050 29 24 74% 34 76.61 0.0
30 11:55 Vrbl 11 16.09 Mostly Cloudy SCT024 BKN028 BKN120 29 24 74% 34 76.63 0.0
30 11:35 NE 9 16.09 Mostly Cloudy SCT023 SCT028 BKN120 29 24 74% 34 76.63 0.0
30 11:15 E 11 16.09 Overcast BKN019 BKN028 OVC090 29 24 74% 34 76.66 0.0
30 10:55 Vrbl 11 11.27 Overcast with Haze BKN019 OVC025 29 25 79% 35 76.66 0.0
30 10:35 NE 15 16.09 Mostly Cloudy BKN015 BKN021 28 24 79% 32 76.63 0.0
30 10:15 E 15 16.09 Mostly Cloudy SCT013 BKN019 BKN070 28 25 84% 33 76.63 0.0
30 09:55 NE 9 16.09 Overcast BKN015 BKN070 OVC090 27 25 89% 31 76.66 0.0
30 09:35 N 13 16.09 Partly Cloudy SCT013 27 25 89% 31 76.66 0.0
30 09:15 NE 9 16.09 Fair CLR 26 24 89% 28 76.63 0.0
30 08:55 NE 7 16.09 Fair CLR 25 24 94% 26 76.61 0.0
30 08:35 NE 9 16.09 Fair CLR 25 24 94% 26 76.58 0.0
30 08:15 N 13 16.09 Fair CLR 24 24 100% 23 76.58 0.0
30 07:55 N 11 16.09 Fair CLR 24 24 24.2 23.1 100% 23 76.58 0.0
30 07:35 N 7 16.09 Partly Cloudy FEW014 SCT032 SCT050 24 23 94% 23 76.58 0.0
30 07:15 N 7 16.09 Overcast BKN014 OVC024 24 23 94% 23 76.58 0.0
30 06:55 N 9 16.09 Overcast OVC012 24 23 94% 23 76.58 0.0
30 06:35 N 9 16.09 Overcast FEW002 BKN014 OVC019 24 23 94% 23 76.58 0.0
30 06:15 N 9 16.09 Mostly Cloudy BKN018 24 23 94% 23 76.58 0.0
30 05:55 N 9 16.09 A Few Clouds FEW018 24 23 94% 23 76.58 0.0
30 05:35 NE 7 16.09 Fair CLR 24 23 94% 23 76.56 0.0
30 05:15 N 6 16.09 A Few Clouds FEW026 23 23 100% 76.56 0.0
30 04:55 N 4 16.09 Partly Cloudy FEW015 FEW025 SCT031 23 23 100% 76.56 0.0
30 04:35 NE 6 16.09 Fair CLR 24 23 94% 23 76.56 0.0
30 04:15 NE 6 16.09 Fair CLR 24 23 94% 23 76.56 0.0
30 03:55 N 6 16.09 Fair CLR 24 23 94% 23 76.56 0.0
30 03:15 NE 6 16.09 Fair CLR 24 23 94% 23 76.56 0.0
30 02:55 NE 6 16.09 Fair CLR 24 23 94% 23 76.58 0.0
30 02:35 NE 9 16.09 Fair CLR 24 23 94% 23 76.58 0.0
30 02:15 N 9 16.09 Fair CLR 24 23 94% 23 76.61 0.0
30 01:55 N 9 16.09 Fair CLR 24 23 26.6 23.9 94% 23 76.61 0.0
30 01:35 N 6 16.09 Fair CLR 24 23 94% 23 76.63 0.0
30 01:15 NE 6 16.09 A Few Clouds FEW120 24 23 94% 23 76.63 0.0
30 00:55 N 4 16.09 Fair CLR 25 23 89% 26 76.63 0.0
30 00:35 E 6 16.09 Fair CLR 25 24 94% 26 76.63 0.0
30 00:15 NE 6 16.09 Fair CLR 24 23 94% 23 76.63 0.0
29 23:55 NE 6 16.09 Fair CLR 24 23 94% 23 76.63 0.0
29 23:35 N 7 16.09 A Few Clouds FEW060 24 23 94% 23 76.66 0.0
29 23:15 NE 9 16.09 Partly Cloudy SCT060 25 23 89% 26 76.66 0.0
29 22:55 N 9 16.09 Partly Cloudy FEW031 SCT060 25 23 89% 26 76.66 0.0
29 22:35 N 13 16.09 A Few Clouds FEW029 FEW035 25 23 89% 26 76.66 0.0
29 22:15 N 15 16.09 Fair CLR 25 23 89% 26 76.63 0.0
29 21:55 Vrbl 6 16.09 Fair CLR 26 23 84% 28 76.58 0.0
29 21:35 E 6 16.09 Fair CLR 27 23 79% 30 76.53 0.0
29 21:15 SE 9 6.44 Fair with Haze CLR 26 23 84% 28 76.48 0.0
29 20:55 SE 9 16.09 Fair CLR 26 23 84% 28 76.5 0.0
29 20:35 E 6 16.09 Fair CLR 26 24 89% 28 76.53 0.0
29 20:15 NE 4 16.09 Fair CLR 26 24 89% 28 76.56 0.0
29 19:55 NE 6 16.09 Fair CLR 26 24 28.5 25.6 89% 28 76.56 0.0
29 19:35 N 2 16.09 Fair CLR 26 24 89% 28 76.58 0.0
29 19:15 Vrbl 6 16.09 Fair CLR 26 24 89% 28 76.56 0.0
29 18:55 SE 9 16.09 Fair CLR 26 23 84% 28 76.53 0.0
29 18:35 SE 9 16.09 Fair CLR 27 23 79% 30 76.56 0.0
29 18:15 Vrbl 9 16.09 Thunderstorm in Vicinity CLR 27 23 79% 30 76.56 0.0
29 17:55 E 13 16.09 Fair CLR 27 23 79% 30 76.58 0.0
29 17:35 E 11 16.09 Fair CLR 27 22 74% 29 76.58 0.0
29 17:15 E 13 16.09 A Few Clouds FEW014 27 23 79% 30 76.58 0.0
29 16:55 E 11 16.09 Fair CLR 27 23 79% 30 76.56 0.0
29 16:35 E 9 16.09 Fair CLR 27 23 79% 30 76.58 0.0
29 16:15 E 11 16.09 Fair CLR 27 22 74% 29 76.56 0.0
29 15:55 E 7 16.09 Fair CLR 27 23 79% 30 76.53 0.0
29 15:35 E 7 16.09 Fair CLR 27 23 79% 30 76.5 0.0
29 15:15 E 9 16.09 Fair CLR 28 23 74% 31 76.5 0.0
29 14:55 E 9 16.09 A Few Clouds FEW020 28 23 74% 31 76.5 0.0
29 14:35 E 7 16.09 Mostly Cloudy SCT020 SCT026 BKN110 28 23 74% 31 76.53 0.0
29 14:15 SE 9 16.09 Overcast SCT020 OVC110 28 23 74% 31 76.58 0.0
29 13:55 Vrbl 6 14.48 Mostly Cloudy FEW018 BKN120 28 23 28.2 23.7 74% 31 76.61 0.0
29 13:35 SE 6 16.09 Mostly Cloudy SCT018 BKN110 28 23 74% 31 76.63 0.0
29 13:15 SE 6 16.09 Overcast FEW012 OVC110 27 24 84% 30 76.63 0.0
29 12:55 SE 9 16.09 Overcast BKN014 OVC110 27 24 84% 30 76.66 0.0
29 12:35 Vrbl 7 16.09 Mostly Cloudy BKN014 BKN120 27 24 84% 30 76.66 0.0
29 12:15 E 7 16.09 Partly Cloudy SCT014 27 23 79% 30 76.63 0.0
29 11:55 Vrbl 2 16.09 Fair CLR 26 23 84% 28 76.63 0.0
29 11:35 S 4 16.09 A Few Clouds FEW009 26 23 84% 28 76.63 0.0
29 11:15 S 6 16.09 Mostly Cloudy BKN009 26 23 84% 28 76.63 0.0
29 10:55 SE 7 16.09 Mostly Cloudy BKN009 26 24 89% 28 76.61 0.0 0.03
29 10:35 SE 6 16.09 Partly Cloudy FEW007 SCT085 SCT110 25 24 94% 26 76.61 0.0
29 10:15 E 6 16.09 Light Drizzle SCT028 BKN046 BKN080 25 24 94% 26 76.61 0.0
29 09:55 Vrbl 2 16.09 Light Rain SCT038 BKN050 OVC085 25 24 94% 26 76.63 0.0 0.1
29 09:35 E 4 9.66 Light Rain Fog/Mist FEW043 BKN055 OVC070 24 24 100% 23 76.63 0.0
29 09:15 NE 4 9.66 Thunderstorm in Vicinity Rain Fog/Mist SCT055 BKN080 OVC095 24 24 100% 23 76.63 0.0
29 08:55 N 4 16.09 Light Rain SCT075 BKN085 OVC120 24 24 100% 23 76.61 0.0 0.99
29 08:35 NE 7 6.44 Light Rain Fog/Mist SCT060 BKN070 BKN080 24 24 100% 23 76.58 0.0
29 08:15 NE 6 2.01 Heavy Rain Fog/Mist SCT006 OVC022 24 23 94% 23 76.58 0.0
29 07:55 E 9 1.61 Heavy Rain Fog/Mist BKN010 BKN013 OVC020 24 24 25.8 23.9 100% 23 76.58 0.0 0.66
29 07:35 E 4 2.41 Thunderstorm in Vicinity Rain Fog/Mist SCT013 BKN030 OVC055 25 24 94% 26 76.58 0.0
29 07:15 NE 4 11.27 Thunderstorm Fog/Mist SCT075 BKN100 OVC120 24 24 100% 23 76.56 0.0
29 06:55 NE 4 12.87 Thunderstorm FEW055 SCT075 SCT090 24 24 100% 23 76.5 0.0
29 06:35 N 6 11.27 Fog/Mist CLR 24 24 100% 23 76.48 0.0
29 06:15 NE 7 11.27 Thunderstorm in Vicinity CLR 24 24 100% 23 76.45 0.0
29 05:55 N 6 11.27 Fog/Mist CLR 24 24 100% 23 76.45 0.0
29 05:35 N 6 12.87 Thunderstorm in Vicinity CLR 24 24 100% 23 76.43 0.0
29 05:15 N 7 12.87 Fair CLR 24 24 100% 23 76.43 0.0
29 04:55 N 6 14.48 Fair CLR 25 24 94% 26 76.43 0.0
29 04:35 N 6 14.48 Partly Cloudy SCT100 SCT120 25 24 94% 26 76.43 0.0
29 04:15 N 6 16.09 Partly Cloudy FEW085 SCT110 25 24 94% 26 76.43 0.0
29 03:55 NW 4 16.09 Fair CLR 25 24 94% 26 76.43 0.0 0.03
29 03:35 NW 6 16.09 Light Drizzle SCT110 25 24 94% 26 76.4 0.0
29 03:15 W 7 16.09 Light Rain BKN100 25 24 94% 26 76.4 0.0
29 02:55 W 7 14.48 Light Rain FEW015 SCT080 BKN095 26 25 94% 28 76.4 0.0 0.05
29 02:35 SW 6 16.09 Thunderstorm in Vicinity Rain SCT012 BKN021 OVC110 26 25 94% 28 76.4 0.0
29 02:15 Vrbl 2 14.48 Light Rain SCT015 SCT022 SCT080 25 25 100% 25 76.38 0.0
29 01:55 Calm 16.09 Light Rain FEW016 FEW070 SCT110 25 24 27.1 25.3 94% 26 76.35 0.0 0.05
29 01:35 SW 4 14.48 Light Rain FEW016 FEW070 BKN110 26 24 89% 28 76.38 0.0
29 01:15 W 2 16.09 Light Drizzle BKN110 26 24 89% 28 76.35 0.0
29 00:55 W 6 16.09 Mostly Cloudy SCT014 SCT022 BKN120 26 24 89% 28 76.35 0.0
29 00:35 W 2 16.09 Mostly Cloudy SCT016 SCT020 BKN026 26 24 89% 28 76.35 0.0
29 00:15 Vrbl 2 16.09 A Few Clouds FEW014 FEW019 25 24 94% 26 76.35 0.0
28 23:55 NW 2 16.09 Fair CLR 26 24 89% 28 76.35 0.0
28 23:35 N 2 16.09 Fair CLR 25 24 94% 26 76.35 0.0
28 23:15 NE 4 16.09 Fair CLR 26 24 89% 28 76.35 0.0
28 22:55 Calm 16.09 A Few Clouds FEW120 26 24 89% 28 76.35 0.0
28 22:35 NW 4 16.09 Fair CLR 26 24 89% 28 76.35 0.0
28 22:15 W 7 16.09 Fair CLR 27 24 84% 30 76.35 0.0
28 21:35 SW 13 16.09 Partly Cloudy SCT017 SCT120 27 24 84% 30 76.35 0.0
28 21:15 W 11 16.09 Mostly Cloudy BKN017 27 24 84% 30 76.35 0.0
28 20:55 W 9 16.09 A Few Clouds FEW017 27 24 84% 30 76.33 0.0
28 20:35 W 9 16.09 Fair CLR 27 24 84% 30 76.33 0.0
28 20:15 SW 7 16.09 Fair CLR 27 24 84% 30 76.3 0.0
28 19:55 W 9 16.09 Fair CLR 27 24 28.1 26.9 84% 30 76.3 0.0
28 19:35 W 15 16.09 Fair CLR 27 24 84% 30 76.28 0.0
28 19:15 SW 15 16.09 Fair CLR 27 24 84% 30 76.28 0.0
28 18:55 SW 13 16.09 A Few Clouds FEW016 27 24 84% 30 76.25 0.0
28 18:35 SW 15 16.09 Partly Cloudy SCT016 27 24 84% 30 76.25 0.0
28 18:15 SW 11 16.09 Partly Cloudy SCT016 27 24 84% 30 76.25 0.0
28 17:55 SW 17 16.09 Mostly Cloudy BKN016 27 24 84% 30 76.25 0.0
28 17:35 SW 20 16.09 Mostly Cloudy BKN014 28 24 79% 32 76.25 0.0
28 17:15 SW 19 16.09 Partly Cloudy SCT016 27 24 84% 30 76.25 0.0
28 16:55 SW 20 16.09 Mostly Cloudy BKN016 BKN031 BKN075 28 24 79% 32 76.25 0.0
28 16:35 SW 19 16.09 Mostly Cloudy SCT016 SCT029 BKN055 28 24 79% 32 76.25 0.0
28 16:15 SW 17 16.09 Fair CLR 27 23 79% 30 76.25 0.0
28 15:55 SW 20 16.09 A Few Clouds FEW017 28 24 79% 32 76.28 0.0
28 15:35 SW 19 16.09 Partly Cloudy SCT017 28 24 79% 32 76.28 0.0
28 15:15 SW 20 16.09 A Few Clouds FEW017 28 24 79% 32 76.28 0.0
28 14:55 SW 19 16.09 A Few Clouds FEW017 FEW037 FEW065 28 23 74% 31 76.28 0.0
28 14:35 SW 15 16.09 Partly Cloudy SCT018 SCT065 28 24 79% 32 76.28 0.0
28 14:15 SW 19 16.09 A Few Clouds FEW018 28 24 79% 32 76.3 0.0
28 13:55 SW 15 16.09 A Few Clouds FEW018 28 23 28.3 24.6 74% 31 76.3 0.0
Date Time (edt) Wind (kph) Vis. (km) Weather Sky Cond. Air Dwpt Max. Min. Relative Humidity Wind Chill (°C) Heat Index (°C) altimeter (cm) sea level (mb) 1 hr 3 hr 6 hr
6 hour
Temperature (ºC) Pressure Precipitation (cm)